Regional Weather Roundup
Issued by NWS

Home | Current Version | Previous Version | Graphics & Text | Print | Product List | Glossary Off
Versions: 1 2 3 4 5 6 7 8 9 10 11 12 13 14 15 16 17 18 19 20 21 22 23 24 25 26 27 28 29 30 31 32 33 34 35 36 37 38 39 40 41 42 43 44 45 46 47 48 49 50

000
ASUS43 KLSX 300957
RWRMO

WEATHER SUMMARY FOR MISSOURI
NATIONAL WEATHER SERVICE SPRINGFIELD MO
500 AM CDT SAT JUL 30 2016

NOTE: "FAIR" INDICATES FEW OR NO CLOUDS BELOW 12,000 FEET WITH NO
       SIGNIFICANT WEATHER AND/OR OBSTRUCTIONS TO VISIBILITY.
       CURRENT SKY AND/OR WEATHER CONDITIONS ARE NOT AVAILABLE FOR
       CHILLICOTHE AND FARMINGTON.

MOZ001>031-035>038-043-044-053-054-301100-
...NORTHERN AND WESTERN MISSOURI...

CITY           SKY/WX    TMP DP  RH WIND       PRES   REMARKS
KANSAS CTY INT CLEAR     63  60  90 N7        30.01S
LEE`S SUMMIT   CLEAR     67  63  87 CALM      30.00F
ST JOSEPH      MOCLDY    61  59  93 N5        30.01S

$$
MOZ066>068-077>081-088>096-101>105-301100-
...SOUTHWEST MISSOURI...

CITY           SKY/WX    TMP DP  RH WIND       PRES   REMARKS
SPRINGFIELD    PTCLDY    70  67  90 CALM      29.99S
JOPLIN         CLEAR     68  68 100 CALM      29.99S

$$
MOZ032>034-039>042-045>050-055>058-069>072-301100-
...CENTRAL MISSOURI...

CITY           SKY/WX    TMP DP  RH WIND       PRES   REMARKS
COLUMBIA       NOT AVBL
JEFFERSON CITY PTCLDY    67  65  93 CALM      29.97S
ROLLA          CLEAR     66  65  96 CALM      29.97S
SEDALIA        CLEAR     66  63  90 NW6       30.00R
OSAGE BEACH    CLOUDY    68  66  94 CALM      29.99S FOG

$$
MOZ051-052-059>065-301100-
...EAST CENTRAL MISSOURI...

CITY           SKY/WX    TMP DP  RH WIND       PRES   REMARKS
ST LOUIS INTL  PTCLDY    73  67  81 NW3       29.95F

$$
MOZ072>076-082>087-097>100-106>115-301100-
...SOUTH CENTRAL AND SOUTHEAST MISSOURI...

CITY           SKY/WX    TMP DP  RH WIND       PRES   REMARKS
CAPE GIRARDEAU NOT AVBL
FARMINGTON     MOCLDY    69  69 100 CALM      29.97S FOG
POPLAR BLUFF   CLOUDY    71  70  96 CALM      29.95R
WEST PLAINS    PTCLDY    68  65  90 CALM      30.01R

$$


USA.gov is the U.S. government's official web portal to all federal, state and local government web resources and services.